Time,TemperatureF,DewpointF,PressureIn,WindDirection,WindDirectionDegrees,WindSpeedMPH,WindSpeedGustMPH,Humidity,HourlyPrecipIn,Conditions,Clouds,dailyrainin,SoftwareType,DateUTC
2013-04-22 00:02:00,64.6,56.5,30.12,NE,45,4.0,7.0,75,0.00,,,0.00,meteohub,2013-04-22 05:02:00,
2013-04-22 00:07:00,64.4,56.3,30.12,NE,45,4.0,5.0,75,0.00,,,0.00,meteohub,2013-04-22 05:07:00,
2013-04-22 00:12:00,64.4,56.3,30.12,ENE,68,4.0,7.0,75,0.00,,,0.00,meteohub,2013-04-22 05:12:00,
2013-04-22 00:17:00,64.2,56.1,30.12,NE,45,6.0,8.0,75,0.00,,,0.00,meteohub,2013-04-22 05:17:00,
2013-04-22 00:22:00,64.2,56.5,30.12,East,90,3.0,8.0,76,0.00,,,0.00,meteohub,2013-04-22 05:22:00,
2013-04-22 00:27:00,64.0,56.3,30.12,NE,45,4.0,8.0,76,0.00,,,0.00,meteohub,2013-04-22 05:27:00,
2013-04-22 00:32:00,64.0,56.3,30.12,NE,45,5.0,8.0,76,0.00,,,0.00,meteohub,2013-04-22 05:32:00,
2013-04-22 00:38:00,63.9,56.5,30.12,NE,45,5.0,8.0,77,0.00,,,0.00,meteohub,2013-04-22 05:38:00,
2013-04-22 00:43:00,63.7,56.7,30.12,NE,45,6.0,6.0,78,0.00,,,0.00,meteohub,2013-04-22 05:43:00,
2013-04-22 00:48:00,63.5,56.5,30.12,East,90,4.0,6.0,78,0.00,,,0.00,meteohub,2013-04-22 05:48:00,
2013-04-22 00:53:00,63.3,56.7,30.12,ENE,68,5.0,6.0,79,0.00,,,0.00,meteohub,2013-04-22 05:53:00,
2013-04-22 00:58:00,63.3,57.0,30.12,ENE,68,5.0,7.0,80,0.00,,,0.00,meteohub,2013-04-22 05:58:00,
2013-04-22 01:03:00,63.3,57.0,30.12,NE,45,4.0,7.0,80,0.00,,,0.00,meteohub,2013-04-22 06:03:00,
2013-04-22 01:08:00,63.3,57.4,30.12,NE,45,8.0,8.0,81,0.00,,,0.00,meteohub,2013-04-22 06:08:00,
2013-04-22 01:13:00,63.3,57.4,30.12,NE,45,7.0,8.0,81,0.00,,,0.00,meteohub,2013-04-22 06:13:00,
2013-04-22 01:19:00,63.3,57.4,30.12,East,90,8.0,8.0,81,0.00,,,0.00,meteohub,2013-04-22 06:19:00,
2013-04-22 01:24:00,63.1,57.2,30.12,ENE,68,5.0,11.0,81,0.00,,,0.00,meteohub,2013-04-22 06:24:00,
2013-04-22 01:29:00,63.1,57.6,30.12,ESE,113,4.0,11.0,82,0.00,,,0.00,meteohub,2013-04-22 06:29:00,
2013-04-22 01:34:00,63.0,57.4,30.12,ENE,68,8.0,12.0,82,0.00,,,0.00,meteohub,2013-04-22 06:34:00,
2013-04-22 01:39:00,62.8,57.2,30.11,NE,45,6.0,13.0,82,0.00,,,0.00,meteohub,2013-04-22 06:39:00,
2013-04-22 01:44:00,62.8,57.2,30.11,East,90,5.0,13.0,82,0.00,,,0.00,meteohub,2013-04-22 06:44:00,
2013-04-22 01:49:00,62.6,57.0,30.11,NNE,23,7.0,13.0,82,0.00,,,0.00,meteohub,2013-04-22 06:49:00,
2013-04-22 01:54:00,62.6,57.0,30.12,NE,45,8.0,12.0,82,0.00,,,0.00,meteohub,2013-04-22 06:54:00,
2013-04-22 01:59:00,62.4,57.6,30.12,NE,45,4.0,12.0,84,0.00,,,0.00,meteohub,2013-04-22 06:59:00,
2013-04-22 02:05:00,62.1,57.2,30.12,ENE,68,6.0,10.0,84,0.00,,,0.00,meteohub,2013-04-22 07:05:00,
2013-04-22 02:10:00,62.1,57.2,30.11,NNE,23,8.0,8.0,84,0.00,,,0.00,meteohub,2013-04-22 07:10:00,
2013-04-22 02:15:00,62.1,57.2,30.11,NE,45,5.0,6.0,84,0.00,,,0.00,meteohub,2013-04-22 07:15:00,
2013-04-22 02:20:00,62.1,57.2,30.11,East,90,5.0,11.0,84,0.00,,,0.00,meteohub,2013-04-22 07:20:00,
2013-04-22 02:25:00,61.9,57.0,30.11,NE,45,6.0,11.0,84,0.00,,,0.00,meteohub,2013-04-22 07:25:00,
2013-04-22 02:30:00,61.7,56.8,30.11,East,90,8.0,11.0,84,0.00,,,0.00,meteohub,2013-04-22 07:30:00,
2013-04-22 02:35:00,61.5,57.0,30.11,East,90,9.0,11.0,85,0.00,,,0.00,meteohub,2013-04-22 07:35:00,
2013-04-22 02:40:00,61.3,56.8,30.11,North,0,8.0,9.0,85,0.00,,,0.00,meteohub,2013-04-22 07:40:00,
2013-04-22 02:45:00,61.2,56.7,30.11,North,0,5.0,9.0,85,0.00,,,0.00,meteohub,2013-04-22 07:45:00,
2013-04-22 02:50:00,61.0,56.5,30.11,ENE,68,4.0,9.0,85,0.00,,,0.00,meteohub,2013-04-22 07:50:00,
2013-04-22 02:56:00,60.8,56.3,30.11,NE,45,5.0,8.0,85,0.00,,,0.00,meteohub,2013-04-22 07:56:00,
2013-04-22 03:01:00,60.8,56.3,30.10,ENE,68,6.0,9.0,85,0.00,,,0.00,meteohub,2013-04-22 08:01:00,
2013-04-22 03:06:00,60.8,56.3,30.10,ENE,68,6.0,9.0,85,0.00,,,0.00,meteohub,2013-04-22 08:06:00,
2013-04-22 03:11:00,60.4,56.3,30.10,NE,45,6.0,9.0,86,0.00,,,0.00,meteohub,2013-04-22 08:11:00,
2013-04-22 03:16:00,60.3,56.1,30.10,NE,45,8.0,11.0,86,0.00,,,0.00,meteohub,2013-04-22 08:16:00,
2013-04-22 03:21:00,60.3,56.1,30.10,East,90,8.0,11.0,86,0.00,,,0.00,meteohub,2013-04-22 08:21:00,
2013-04-22 03:26:00,60.1,55.9,30.10,ENE,68,4.0,11.0,86,0.00,,,0.00,meteohub,2013-04-22 08:26:00,
2013-04-22 03:32:00,59.9,55.8,30.10,NE,45,5.0,8.0,86,0.00,,,0.00,meteohub,2013-04-22 08:32:00,
2013-04-22 03:37:00,59.9,55.8,30.10,NE,45,4.0,8.0,86,0.00,,,0.00,meteohub,2013-04-22 08:37:00,
2013-04-22 03:42:00,59.7,55.8,30.09,NE,45,3.0,6.0,87,0.00,,,0.00,meteohub,2013-04-22 08:42:00,
2013-04-22 03:47:00,59.5,55.6,30.10,ENE,68,6.0,7.0,87,0.00,,,0.00,meteohub,2013-04-22 08:47:00,
2013-04-22 03:52:00,59.4,55.4,30.10,SE,135,3.0,8.0,87,0.00,,,0.00,meteohub,2013-04-22 08:52:00,
2013-04-22 03:57:00,59.2,55.4,30.10,NE,45,3.0,8.0,87,0.00,,,0.00,meteohub,2013-04-22 08:57:00,
2013-04-22 04:02:00,59.0,55.4,30.10,NNW,338,3.0,8.0,88,0.00,,,0.00,meteohub,2013-04-22 09:02:00,
2013-04-22 04:07:00,59.0,55.4,30.10,East,90,4.0,4.0,88,0.00,,,0.00,meteohub,2013-04-22 09:07:00,
2013-04-22 04:12:00,58.8,55.6,30.10,NE,45,3.0,5.0,89,0.00,,,0.00,meteohub,2013-04-22 09:12:00,
2013-04-22 04:17:00,58.6,55.4,30.10,ENE,68,4.0,5.0,89,0.00,,,0.00,meteohub,2013-04-22 09:17:00,
2013-04-22 04:22:00,58.5,55.6,30.10,East,90,3.0,5.0,90,0.00,,,0.00,meteohub,2013-04-22 09:22:00,
2013-04-22 04:27:00,58.3,55.4,30.10,East,90,4.0,5.0,90,0.00,,,0.00,meteohub,2013-04-22 09:27:00,
2013-04-22 04:32:00,58.5,55.8,30.10,NE,45,6.0,6.0,91,0.00,,,0.00,meteohub,2013-04-22 09:32:00,
2013-04-22 04:37:00,58.5,55.8,30.10,NE,45,4.0,8.0,91,0.00,,,0.00,meteohub,2013-04-22 09:37:00,
2013-04-22 04:42:00,58.6,55.9,30.09,East,90,4.0,8.0,91,0.00,,,0.00,meteohub,2013-04-22 09:42:00,
2013-04-22 04:47:00,58.5,55.8,30.10,East,90,8.0,8.0,91,0.00,,,0.00,meteohub,2013-04-22 09:47:00,
2013-04-22 04:52:00,58.5,55.8,30.09,North,0,4.0,8.0,91,0.00,,,0.00,meteohub,2013-04-22 09:52:00,
2013-04-22 04:57:00,58.5,55.8,30.09,East,90,8.0,8.0,91,0.00,,,0.00,meteohub,2013-04-22 09:57:00,
2013-04-22 05:02:00,58.3,55.6,30.09,East,90,5.0,8.0,91,0.00,,,0.00,meteohub,2013-04-22 10:02:00,
2013-04-22 05:07:00,58.3,55.6,30.09,East,90,5.0,8.0,91,0.00,,,0.00,meteohub,2013-04-22 10:07:00,
2013-04-22 05:12:00,58.3,55.6,30.09,NE,45,4.0,8.0,91,0.00,,,0.00,meteohub,2013-04-22 10:12:00,
2013-04-22 05:17:00,58.3,55.6,30.09,NE,45,3.0,6.0,91,0.00,,,0.00,meteohub,2013-04-22 10:17:00,
2013-04-22 05:22:00,58.1,55.8,30.09,East,90,4.0,6.0,92,0.00,,,0.00,meteohub,2013-04-22 10:22:00,
2013-04-22 05:27:00,57.9,55.6,30.09,ENE,68,4.0,6.0,92,0.00,,,0.00,meteohub,2013-04-22 10:27:00,
2013-04-22 05:32:00,57.7,55.4,30.09,East,90,4.0,4.0,92,0.00,,,0.00,meteohub,2013-04-22 10:32:00,
2013-04-22 05:37:00,57.6,55.6,30.09,NE,45,4.0,4.0,93,0.00,,,0.00,meteohub,2013-04-22 10:37:00,
2013-04-22 05:42:00,57.6,55.6,30.09,East,90,4.0,4.0,93,0.00,,,0.00,meteohub,2013-04-22 10:42:00,
2013-04-22 05:47:00,57.6,55.6,30.09,ENE,68,3.0,4.0,93,0.00,,,0.00,meteohub,2013-04-22 10:47:00,
2013-04-22 05:52:00,57.4,55.4,30.10,NE,45,2.0,4.0,93,0.00,,,0.00,meteohub,2013-04-22 10:52:00,
2013-04-22 05:57:00,57.0,55.6,30.10,NE,45,2.0,4.0,95,0.00,,,0.00,meteohub,2013-04-22 10:57:00,
2013-04-22 06:02:00,56.8,55.4,30.10,NE,45,2.0,4.0,95,0.00,,,0.00,meteohub,2013-04-22 11:02:00,
2013-04-22 06:07:00,56.7,55.2,30.10,NE,45,2.0,3.0,95,0.00,,,0.00,meteohub,2013-04-22 11:07:00,
2013-04-22 06:12:00,56.7,55.6,30.10,North,0,3.0,3.0,96,0.00,,,0.00,meteohub,2013-04-22 11:12:00,
2013-04-22 06:17:00,56.5,55.4,30.10,NE,45,1.0,3.0,96,0.00,,,0.00,meteohub,2013-04-22 11:17:00,
2013-04-22 06:22:00,56.3,55.2,30.10,NE,45,2.0,3.0,96,0.00,,,0.00,meteohub,2013-04-22 11:22:00,
2013-04-22 06:27:00,56.1,55.0,30.10,NE,45,2.0,3.0,96,0.00,,,0.00,meteohub,2013-04-22 11:27:00,
2013-04-22 06:32:00,56.1,55.0,30.10,NE,45,2.0,2.0,96,0.00,,,0.00,meteohub,2013-04-22 11:32:00,
2013-04-22 06:37:00,56.1,55.2,30.10,East,90,2.0,2.0,97,0.00,,,0.00,meteohub,2013-04-22 11:37:00,
2013-04-22 06:42:00,56.3,55.4,30.10,North,0,2.0,4.0,97,0.00,,,0.00,meteohub,2013-04-22 11:42:00,
2013-04-22 06:47:00,56.3,55.4,30.11,NE,45,2.0,4.0,97,0.00,,,0.00,meteohub,2013-04-22 11:47:00,
2013-04-22 06:52:00,56.3,55.4,30.11,NE,45,2.0,4.0,97,0.00,,,0.00,meteohub,2013-04-22 11:52:00,
2013-04-22 06:57:00,56.5,55.6,30.11,NE,45,2.0,3.0,97,0.00,,,0.00,meteohub,2013-04-22 11:57:00,
2013-04-22 07:02:00,56.5,55.6,30.10,East,90,2.0,3.0,97,0.00,,,0.00,meteohub,2013-04-22 12:02:00,
2013-04-22 07:07:00,56.5,55.6,30.11,East,90,2.0,3.0,97,0.00,,,0.00,meteohub,2013-04-22 12:07:00,
2013-04-22 07:12:00,56.7,56.1,30.11,East,90,3.0,3.0,98,0.00,,,0.00,meteohub,2013-04-22 12:12:00,
2013-04-22 07:17:00,56.8,55.9,30.11,East,90,3.0,4.0,97,0.00,,,0.00,meteohub,2013-04-22 12:17:00,
2013-04-22 07:22:00,57.0,56.1,30.11,East,90,3.0,4.0,97,0.00,,,0.00,meteohub,2013-04-22 12:22:00,
2013-04-22 07:27:00,57.2,56.1,30.11,East,90,2.0,4.0,96,0.00,,,0.00,meteohub,2013-04-22 12:27:00,
2013-04-22 07:32:00,57.2,56.1,30.11,NE,45,2.0,4.0,96,0.00,,,0.00,meteohub,2013-04-22 12:32:00,
2013-04-22 07:37:00,57.4,56.3,30.11,NE,45,2.0,4.0,96,0.00,,,0.00,meteohub,2013-04-22 12:37:00,
2013-04-22 07:42:00,57.6,56.5,30.11,East,90,5.0,5.0,96,0.00,,,0.00,meteohub,2013-04-22 12:42:00,
2013-04-22 07:47:00,57.9,56.5,30.11,East,90,6.0,6.0,95,0.00,,,0.00,meteohub,2013-04-22 12:47:00,
2013-04-22 07:51:00,58.5,56.7,30.11,ENE,68,3.0,6.0,94,0.00,,,0.00,meteohub,2013-04-22 12:51:00,
2013-04-22 07:57:00,58.8,57.0,30.11,East,90,4.0,6.0,94,0.00,,,0.00,meteohub,2013-04-22 12:57:00,
2013-04-22 08:02:00,59.4,56.7,30.11,East,90,3.0,6.0,91,0.00,,,0.00,meteohub,2013-04-22 13:02:00,
2013-04-22 08:07:00,59.7,56.8,30.11,North,0,4.0,5.0,90,0.00,,,0.00,meteohub,2013-04-22 13:07:00,
2013-04-22 08:12:00,60.3,57.0,30.11,NE,45,4.0,5.0,89,0.00,,,0.00,meteohub,2013-04-22 13:12:00,
2013-04-22 08:17:00,60.6,56.7,30.11,East,90,8.0,8.0,87,0.00,,,0.00,meteohub,2013-04-22 13:17:00,
2013-04-22 08:22:00,61.2,56.3,30.11,NE,45,11.0,11.0,84,0.00,,,0.00,meteohub,2013-04-22 13:22:00,
2013-04-22 08:26:00,61.5,56.7,30.12,East,90,9.0,11.0,84,0.00,,,0.00,meteohub,2013-04-22 13:26:00,
2013-04-22 08:31:00,62.2,57.0,30.12,East,90,4.0,11.0,83,0.00,,,0.00,meteohub,2013-04-22 13:31:00,
2013-04-22 08:36:00,62.8,56.8,30.11,ENE,68,8.0,11.0,81,0.00,,,0.00,meteohub,2013-04-22 13:36:00,
2013-04-22 08:42:00,63.3,57.4,30.11,NE,45,9.0,10.0,81,0.00,,,0.00,meteohub,2013-04-22 13:42:00,
2013-04-22 08:47:00,63.5,57.2,30.11,East,90,6.0,10.0,80,0.00,,,0.00,meteohub,2013-04-22 13:47:00,
2013-04-22 08:52:00,63.7,57.0,30.11,NE,45,6.0,15.0,79,0.00,,,0.00,meteohub,2013-04-22 13:52:00,
2013-04-22 08:57:00,64.2,57.6,30.12,NE,45,6.0,15.0,79,0.00,,,0.00,meteohub,2013-04-22 13:57:00,
2013-04-22 09:02:00,64.4,57.7,30.12,East,90,10.0,15.0,79,0.00,,,0.00,meteohub,2013-04-22 14:02:00,
2013-04-22 09:07:00,64.4,57.7,30.12,East,90,10.0,11.0,79,0.00,,,0.00,meteohub,2013-04-22 14:07:00,
2013-04-22 09:12:00,65.3,58.3,30.11,East,90,10.0,11.0,78,0.00,,,0.00,meteohub,2013-04-22 14:12:00,
2013-04-22 09:17:00,65.7,58.3,30.11,East,90,11.0,20.0,77,0.00,,,0.00,meteohub,2013-04-22 14:17:00,
2013-04-22 09:22:00,65.8,58.1,30.12,NE,45,8.0,20.0,76,0.00,,,0.00,meteohub,2013-04-22 14:22:00,
2013-04-22 09:27:00,66.6,58.5,30.12,East,90,12.0,20.0,75,0.00,,,0.00,meteohub,2013-04-22 14:27:00,
2013-04-22 09:32:00,67.1,58.5,30.12,ESE,113,13.0,13.0,74,0.00,,,0.00,meteohub,2013-04-22 14:32:00,
2013-04-22 09:37:00,67.8,58.8,30.12,NE,45,9.0,13.0,73,0.00,,,0.00,meteohub,2013-04-22 14:37:00,
2013-04-22 09:42:00,68.7,59.0,30.12,East,90,7.0,13.0,71,0.00,,,0.00,meteohub,2013-04-22 14:42:00,
2013-04-22 09:47:00,69.6,58.6,30.12,East,90,14.0,14.0,68,0.00,,,0.00,meteohub,2013-04-22 14:47:00,
2013-04-22 09:52:00,69.6,58.1,30.12,SE,135,10.0,16.0,67,0.00,,,0.00,meteohub,2013-04-22 14:52:00,
2013-04-22 09:57:00,70.2,57.9,30.12,East,90,11.0,16.0,65,0.00,,,0.00,meteohub,2013-04-22 14:57:00,
2013-04-22 10:02:00,70.7,58.3,30.12,SE,135,10.0,16.0,65,0.00,,,0.00,meteohub,2013-04-22 15:02:00,
2013-04-22 10:07:00,70.3,57.2,30.12,East,90,13.0,14.0,63,0.00,,,0.00,meteohub,2013-04-22 15:07:00,
2013-04-22 10:12:00,70.2,57.4,30.12,East,90,11.0,15.0,64,0.00,,,0.00,meteohub,2013-04-22 15:12:00,
2013-04-22 10:17:00,70.7,57.6,30.12,SE,135,11.0,15.0,63,0.00,,,0.00,meteohub,2013-04-22 15:17:00,
2013-04-22 10:22:00,70.9,57.7,30.12,SE,135,8.0,17.0,63,0.00,,,0.00,meteohub,2013-04-22 15:22:00,
2013-04-22 10:27:00,71.6,57.9,30.12,NE,45,12.0,17.0,62,0.00,,,0.00,meteohub,2013-04-22 15:27:00,
2013-04-22 10:32:00,72.5,58.3,30.12,SE,135,6.0,17.0,61,0.00,,,0.00,meteohub,2013-04-22 15:32:00,
2013-04-22 10:37:00,72.7,57.6,30.12,NNE,23,9.0,14.0,59,0.00,,,0.00,meteohub,2013-04-22 15:37:00,
2013-04-22 10:42:00,71.6,57.4,30.12,NE,45,11.0,12.0,61,0.00,,,0.00,meteohub,2013-04-22 15:42:00,
2013-04-22 10:47:00,71.4,57.7,30.12,East,90,11.0,12.0,62,0.00,,,0.00,meteohub,2013-04-22 15:47:00,
2013-04-22 10:52:00,72.1,56.1,30.12,East,90,9.0,12.0,57,0.00,,,0.00,meteohub,2013-04-22 15:52:00,
2013-04-22 10:57:00,72.5,55.9,30.12,East,90,8.0,14.0,56,0.00,,,0.00,meteohub,2013-04-22 15:57:00,
2013-04-22 11:02:00,72.7,56.5,30.12,SE,135,9.0,14.0,57,0.00,,,0.00,meteohub,2013-04-22 16:02:00,
2013-04-22 11:07:00,72.7,56.5,30.12,SE,135,9.0,14.0,57,0.00,,,0.00,meteohub,2013-04-22 16:07:00,
2013-04-22 11:12:00,73.9,56.8,30.11,East,90,8.0,11.0,55,0.00,,,0.00,meteohub,2013-04-22 16:12:00,
2013-04-22 11:17:00,74.3,57.0,30.11,NE,45,6.0,11.0,55,0.00,,,0.00,meteohub,2013-04-22 16:17:00,
2013-04-22 11:22:00,74.8,57.6,30.11,East,90,4.0,11.0,55,0.00,,,0.00,meteohub,2013-04-22 16:22:00,
2013-04-22 11:27:00,75.4,57.0,30.10,ENE,68,9.0,11.0,53,0.00,,,0.00,meteohub,2013-04-22 16:27:00,
2013-04-22 11:32:00,75.2,56.8,30.10,South,180,13.0,13.0,53,0.00,,,0.00,meteohub,2013-04-22 16:32:00,
2013-04-22 11:37:00,75.4,56.5,30.10,NE,45,10.0,13.0,52,0.00,,,0.00,meteohub,2013-04-22 16:37:00,
2013-04-22 11:42:00,76.1,58.3,30.10,North,0,8.0,13.0,54,0.00,,,0.00,meteohub,2013-04-22 16:42:00,
2013-04-22 11:47:00,77.2,57.7,30.10,East,90,15.0,15.0,51,0.00,,,0.00,meteohub,2013-04-22 16:47:00,
2013-04-22 11:52:00,76.1,58.3,30.09,East,90,7.0,15.0,54,0.00,,,0.00,meteohub,2013-04-22 16:52:00,
2013-04-22 11:57:00,77.4,58.3,30.09,West,270,7.0,15.0,52,0.00,,,0.00,meteohub,2013-04-22 16:57:00,
2013-04-22 12:02:00,77.7,58.6,30.09,SE,135,8.0,15.0,52,0.00,,,0.00,meteohub,2013-04-22 17:02:00,
2013-04-22 12:07:00,77.5,59.0,30.09,ENE,68,10.0,10.0,53,0.00,,,0.00,meteohub,2013-04-22 17:07:00,
2013-04-22 12:12:00,77.9,59.4,30.09,East,90,6.0,10.0,53,0.00,,,0.00,meteohub,2013-04-22 17:12:00,
2013-04-22 12:17:00,78.3,58.6,30.09,East,90,8.0,11.0,51,0.00,,,0.00,meteohub,2013-04-22 17:17:00,
2013-04-22 12:22:00,78.1,59.5,30.08,SE,135,11.0,11.0,53,0.00,,,0.00,meteohub,2013-04-22 17:22:00,
2013-04-22 12:27:00,78.1,59.5,30.08,East,90,5.0,11.0,53,0.00,,,0.00,meteohub,2013-04-22 17:27:00,
2013-04-22 12:32:00,78.6,59.0,30.08,East,90,8.0,12.0,51,0.00,,,0.00,meteohub,2013-04-22 17:32:00,
2013-04-22 12:37:00,78.1,58.5,30.07,East,90,11.0,14.0,51,0.00,,,0.00,meteohub,2013-04-22 17:37:00,
2013-04-22 12:42:00,78.4,59.4,30.06,South,180,9.0,14.0,52,0.00,,,0.00,meteohub,2013-04-22 17:42:00,
2013-04-22 12:47:00,78.8,58.6,30.06,ESE,113,14.0,14.0,50,0.00,,,0.00,meteohub,2013-04-22 17:47:00,
2013-04-22 12:52:00,79.0,59.4,30.06,NNW,338,6.0,15.0,51,0.00,,,0.00,meteohub,2013-04-22 17:52:00,
2013-04-22 12:57:00,80.4,59.5,30.06,East,90,11.0,15.0,49,0.00,,,0.00,meteohub,2013-04-22 17:57:00,
2013-04-22 13:02:00,79.9,58.5,30.05,ESE,113,11.0,15.0,48,0.00,,,0.00,meteohub,2013-04-22 18:02:00,
2013-04-22 13:07:00,80.1,59.2,30.05,North,0,8.0,11.0,49,0.00,,,0.00,meteohub,2013-04-22 18:07:00,
2013-04-22 13:12:00,80.6,57.9,30.04,NE,45,8.0,11.0,46,0.00,,,0.00,meteohub,2013-04-22 18:12:00,
2013-04-22 13:17:00,80.8,58.6,30.04,East,90,9.0,12.0,47,0.00,,,0.00,meteohub,2013-04-22 18:17:00,
2013-04-22 13:22:00,81.3,58.6,30.04,ESE,113,10.0,13.0,46,0.00,,,0.00,meteohub,2013-04-22 18:22:00,
2013-04-22 13:27:00,81.1,58.5,30.03,NE,45,10.0,16.0,46,0.00,,,0.00,meteohub,2013-04-22 18:27:00,
2013-04-22 13:32:00,81.1,59.0,30.03,East,90,7.0,16.0,47,0.00,,,0.00,meteohub,2013-04-22 18:32:00,
2013-04-22 13:37:00,81.9,58.5,30.02,East,90,14.0,16.0,45,0.00,,,0.00,meteohub,2013-04-22 18:37:00,
2013-04-22 13:42:00,81.7,58.8,30.02,SE,135,11.0,15.0,46,0.00,,,0.00,meteohub,2013-04-22 18:42:00,
2013-04-22 13:48:00,81.5,58.6,30.02,East,90,11.0,15.0,46,0.00,,,0.00,meteohub,2013-04-22 18:48:00,
2013-04-22 13:53:00,82.2,59.4,30.01,NE,45,10.0,15.0,46,0.00,,,0.00,meteohub,2013-04-22 18:53:00,
2013-04-22 13:58:00,82.4,59.5,30.01,SSE,158,8.0,14.0,46,0.00,,,0.00,meteohub,2013-04-22 18:58:00,
2013-04-22 14:03:00,82.9,60.1,30.01,East,90,15.0,15.0,46,0.00,,,0.00,meteohub,2013-04-22 19:03:00,
2013-04-22 14:08:00,82.6,59.7,30.01,East,90,15.0,17.0,46,0.00,,,0.00,meteohub,2013-04-22 19:08:00,
2013-04-22 14:13:00,83.1,60.3,30.01,SE,135,13.0,17.0,46,0.00,,,0.00,meteohub,2013-04-22 19:13:00,
2013-04-22 14:18:00,83.1,60.3,30.00,NE,45,8.0,17.0,46,0.00,,,0.00,meteohub,2013-04-22 19:18:00,
2013-04-22 14:23:00,83.7,60.6,30.00,NE,45,7.0,15.0,46,0.00,,,0.00,meteohub,2013-04-22 19:23:00,
2013-04-22 14:28:00,84.6,60.8,30.00,East,90,11.0,14.0,45,0.00,,,0.00,meteohub,2013-04-22 19:28:00,
2013-04-22 14:33:00,84.0,61.0,29.99,ENE,68,15.0,15.0,46,0.00,,,0.00,meteohub,2013-04-22 19:33:00,
2013-04-22 14:38:00,83.3,60.4,29.99,East,90,11.0,15.0,46,0.00,,,0.00,meteohub,2013-04-22 19:38:00,
2013-04-22 14:43:00,84.4,60.8,29.99,SE,135,10.0,15.0,45,0.00,,,0.00,meteohub,2013-04-22 19:43:00,
2013-04-22 14:48:00,84.7,60.4,29.99,East,90,8.0,15.0,44,0.00,,,0.00,meteohub,2013-04-22 19:48:00,
2013-04-22 14:53:00,85.3,61.0,29.99,East,90,15.0,15.0,44,0.00,,,0.00,meteohub,2013-04-22 19:53:00,
2013-04-22 14:58:00,84.4,60.1,29.98,East,90,9.0,13.0,44,0.00,,,0.00,meteohub,2013-04-22 19:58:00,
2013-04-22 15:03:00,84.7,61.0,29.98,SE,135,9.0,15.0,45,0.00,,,0.00,meteohub,2013-04-22 20:03:00,
2013-04-22 15:08:00,86.0,61.0,29.98,NE,45,10.0,15.0,43,0.00,,,0.00,meteohub,2013-04-22 20:08:00,
2013-04-22 15:13:00,85.5,61.0,29.97,SE,135,8.0,15.0,44,0.00,,,0.00,meteohub,2013-04-22 20:13:00,
2013-04-22 15:18:00,85.3,61.0,29.97,East,90,16.0,16.0,44,0.00,,,0.00,meteohub,2013-04-22 20:18:00,
2013-04-22 15:24:00,84.7,61.0,29.97,East,90,14.0,15.0,45,0.00,,,0.00,meteohub,2013-04-22 20:24:00,
2013-04-22 15:29:00,86.0,60.3,29.97,East,90,16.0,16.0,42,0.00,,,0.00,meteohub,2013-04-22 20:29:00,
2013-04-22 15:34:00,85.1,60.8,29.96,NE,45,8.0,16.0,44,0.00,,,0.00,meteohub,2013-04-22 20:34:00,
2013-04-22 15:39:00,85.6,61.2,29.96,East,90,9.0,16.0,44,0.00,,,0.00,meteohub,2013-04-22 20:39:00,
2013-04-22 15:44:00,86.4,61.2,29.96,NE,45,10.0,17.0,43,0.00,,,0.00,meteohub,2013-04-22 20:44:00,
2013-04-22 15:49:00,86.4,61.2,29.96,East,90,13.0,17.0,43,0.00,,,0.00,meteohub,2013-04-22 20:49:00,
2013-04-22 15:54:00,86.2,61.0,29.96,NNE,23,8.0,17.0,43,0.00,,,0.00,meteohub,2013-04-22 20:54:00,
2013-04-22 15:59:00,86.2,60.4,29.95,East,90,10.0,13.0,42,0.00,,,0.00,meteohub,2013-04-22 20:59:00,
2013-04-22 16:04:00,85.3,60.3,29.95,East,90,12.0,13.0,43,0.00,,,0.00,meteohub,2013-04-22 21:04:00,
2013-04-22 16:09:00,85.8,61.3,29.95,NE,45,11.0,13.0,44,0.00,,,0.00,meteohub,2013-04-22 21:09:00,
2013-04-22 16:14:00,86.4,61.2,29.94,East,90,13.0,13.0,43,0.00,,,0.00,meteohub,2013-04-22 21:14:00,
2013-04-22 16:19:00,85.8,60.8,29.94,NE,45,11.0,13.0,43,0.00,,,0.00,meteohub,2013-04-22 21:19:00,
2013-04-22 16:24:00,86.5,60.8,29.94,NE,45,8.0,16.0,42,0.00,,,0.00,meteohub,2013-04-22 21:24:00,
2013-04-22 16:29:00,86.5,59.4,29.94,NE,45,11.0,16.0,40,0.00,,,0.00,meteohub,2013-04-22 21:29:00,
2013-04-22 16:34:00,86.0,60.3,29.94,NE,45,10.0,16.0,42,0.00,,,0.00,meteohub,2013-04-22 21:34:00,
2013-04-22 16:39:00,86.4,59.9,29.94,East,90,13.0,13.0,41,0.00,,,0.00,meteohub,2013-04-22 21:39:00,
2013-04-22 16:44:00,86.0,58.1,29.94,South,180,11.0,13.0,39,0.00,,,0.00,meteohub,2013-04-22 21:44:00,
2013-04-22 16:49:00,86.2,59.0,29.93,NE,45,6.0,14.0,40,0.00,,,0.00,meteohub,2013-04-22 21:49:00,
2013-04-22 16:54:00,86.7,60.8,29.93,East,90,8.0,14.0,42,0.00,,,0.00,meteohub,2013-04-22 21:54:00,
2013-04-22 16:59:00,86.7,58.8,29.92,East,90,7.0,14.0,39,0.00,,,0.00,meteohub,2013-04-22 21:59:00,
2013-04-22 17:04:00,86.5,60.1,29.92,East,90,8.0,12.0,41,0.00,,,0.00,meteohub,2013-04-22 22:04:00,
2013-04-22 17:09:00,87.1,60.4,29.92,NE,45,11.0,11.0,41,0.00,,,0.00,meteohub,2013-04-22 22:09:00,
2013-04-22 17:14:00,86.0,59.5,29.92,East,90,9.0,11.0,41,0.00,,,0.00,meteohub,2013-04-22 22:14:00,
2013-04-22 17:19:00,85.6,61.2,29.92,South,180,5.0,14.0,44,0.00,,,0.00,meteohub,2013-04-22 22:19:00,
2013-04-22 17:24:00,85.5,59.7,29.92,East,90,11.0,14.0,42,0.00,,,0.00,meteohub,2013-04-22 22:24:00,
2013-04-22 17:29:00,85.5,60.4,29.92,East,90,8.0,17.0,43,0.00,,,0.00,meteohub,2013-04-22 22:29:00,
2013-04-22 17:34:00,85.5,59.7,29.91,NE,45,9.0,17.0,42,0.00,,,0.00,meteohub,2013-04-22 22:34:00,
2013-04-22 17:39:00,85.1,59.4,29.91,East,90,9.0,17.0,42,0.00,,,0.00,meteohub,2013-04-22 22:39:00,
2013-04-22 17:44:00,85.5,59.0,29.91,NE,45,11.0,17.0,41,0.00,,,0.00,meteohub,2013-04-22 22:44:00,
2013-04-22 17:49:00,85.6,59.9,29.91,North,0,8.0,17.0,42,0.00,,,0.00,meteohub,2013-04-22 22:49:00,
2013-04-22 17:54:00,85.1,59.4,29.91,NE,45,8.0,17.0,42,0.00,,,0.00,meteohub,2013-04-22 22:54:00,
2013-04-22 18:00:00,84.9,59.2,29.91,East,90,8.0,15.0,42,0.00,,,0.00,meteohub,2013-04-22 23:00:00,
2013-04-22 18:05:00,85.3,59.5,29.91,ENE,68,9.0,15.0,42,0.00,,,0.00,meteohub,2013-04-22 23:05:00,
2013-04-22 18:10:00,85.5,59.7,29.91,East,90,11.0,15.0,42,0.00,,,0.00,meteohub,2013-04-22 23:10:00,
2013-04-22 18:15:00,84.9,58.6,29.91,NE,45,10.0,12.0,41,0.00,,,0.00,meteohub,2013-04-22 23:15:00,
2013-04-22 18:20:00,84.9,59.2,29.90,NE,45,11.0,11.0,42,0.00,,,0.00,meteohub,2013-04-22 23:20:00,
2013-04-22 18:25:00,84.6,59.5,29.90,NE,45,9.0,11.0,43,0.00,,,0.00,meteohub,2013-04-22 23:25:00,
2013-04-22 18:30:00,84.2,59.4,29.91,East,90,9.0,15.0,43,0.00,,,0.00,meteohub,2013-04-22 23:30:00,
2013-04-22 18:35:00,84.2,59.4,29.91,East,90,11.0,15.0,43,0.00,,,0.00,meteohub,2013-04-22 23:35:00,
2013-04-22 18:40:00,84.0,60.4,29.91,North,0,6.0,15.0,45,0.00,,,0.00,meteohub,2013-04-22 23:40:00,
2013-04-22 18:45:00,84.0,60.4,29.91,East,90,12.0,16.0,45,0.00,,,0.00,meteohub,2013-04-22 23:45:00,
2013-04-22 18:50:00,83.5,59.9,29.90,NE,45,8.0,16.0,45,0.00,,,0.00,meteohub,2013-04-22 23:50:00,
2013-04-22 18:55:00,83.5,59.9,29.91,East,90,17.0,17.0,45,0.00,,,0.00,meteohub,2013-04-22 23:55:00,
2013-04-22 19:00:00,83.1,59.5,29.90,ENE,68,9.0,17.0,45,0.00,,,0.00,meteohub,2013-04-23 00:00:00,
2013-04-22 19:05:00,83.1,59.5,29.90,ENE,68,9.0,17.0,45,0.00,,,0.00,meteohub,2013-04-23 00:05:00,
2013-04-22 19:10:00,82.4,59.0,29.90,SE,135,12.0,17.0,45,0.00,,,0.00,meteohub,2013-04-23 00:10:00,
2013-04-22 19:15:00,82.4,59.5,29.90,NE,45,8.0,12.0,46,0.00,,,0.00,meteohub,2013-04-23 00:15:00,
2013-04-22 19:20:00,82.2,58.1,29.90,ENE,68,6.0,13.0,44,0.00,,,0.00,meteohub,2013-04-23 00:20:00,
2013-04-22 19:25:00,82.2,58.8,29.90,East,90,7.0,13.0,45,0.00,,,0.00,meteohub,2013-04-23 00:25:00,
2013-04-22 19:30:00,81.7,58.3,29.90,NE,45,9.0,12.0,45,0.00,,,0.00,meteohub,2013-04-23 00:30:00,
2013-04-22 19:35:00,81.3,58.6,29.90,East,90,7.0,12.0,46,0.00,,,0.00,meteohub,2013-04-23 00:35:00,
2013-04-22 19:40:00,80.8,58.1,29.90,East,90,7.0,12.0,46,0.00,,,0.00,meteohub,2013-04-23 00:40:00,
2013-04-22 19:45:00,80.1,58.6,29.90,East,90,5.0,11.0,48,0.00,,,0.00,meteohub,2013-04-23 00:45:00,
2013-04-22 19:50:00,79.7,58.3,29.90,ENE,68,7.0,8.0,48,0.00,,,0.00,meteohub,2013-04-23 00:50:00,
2013-04-22 19:55:00,79.3,58.5,29.90,NE,45,8.0,8.0,49,0.00,,,0.00,meteohub,2013-04-23 00:55:00,
2013-04-22 20:00:00,78.8,58.1,29.90,East,90,7.0,8.0,49,0.00,,,0.00,meteohub,2013-04-23 01:00:00,
2013-04-22 20:05:00,78.6,58.5,29.90,NE,45,4.0,8.0,50,0.00,,,0.00,meteohub,2013-04-23 01:05:00,
2013-04-22 20:11:00,78.3,58.6,29.90,NE,45,5.0,8.0,51,0.00,,,0.00,meteohub,2013-04-23 01:11:00,
2013-04-22 20:16:00,77.9,58.3,29.90,NE,45,4.0,8.0,51,0.00,,,0.00,meteohub,2013-04-23 01:16:00,
2013-04-22 20:21:00,77.7,58.6,29.90,NE,45,2.0,5.0,52,0.00,,,0.00,meteohub,2013-04-23 01:21:00,
2013-04-22 20:26:00,77.2,58.6,29.90,East,90,2.0,5.0,53,0.00,,,0.00,meteohub,2013-04-23 01:26:00,
2013-04-22 20:31:00,76.6,58.8,29.90,NE,45,2.0,4.0,54,0.00,,,0.00,meteohub,2013-04-23 01:31:00,
2013-04-22 20:36:00,75.9,58.6,29.91,NE,45,2.0,3.0,55,0.00,,,0.00,meteohub,2013-04-23 01:36:00,
2013-04-22 20:41:00,75.4,58.6,29.91,NE,45,2.0,2.0,56,0.00,,,0.00,meteohub,2013-04-23 01:41:00,
2013-04-22 20:46:00,74.8,58.6,29.91,NE,45,2.0,2.0,57,0.00,,,0.00,meteohub,2013-04-23 01:46:00,
2013-04-22 20:51:00,74.3,58.6,29.91,NE,45,2.0,2.0,58,0.00,,,0.00,meteohub,2013-04-23 01:51:00,
2013-04-22 20:56:00,73.8,58.5,29.91,NE,45,2.0,2.0,59,0.00,,,0.00,meteohub,2013-04-23 01:56:00,
2013-04-22 21:01:00,73.4,58.3,29.91,NE,45,2.0,2.0,59,0.00,,,0.00,meteohub,2013-04-23 02:01:00,
2013-04-22 21:06:00,73.4,58.3,29.91,NE,45,2.0,2.0,59,0.00,,,0.00,meteohub,2013-04-23 02:06:00,
2013-04-22 21:11:00,72.7,58.5,29.91,NE,45,2.0,2.0,61,0.00,,,0.00,meteohub,2013-04-23 02:11:00,
2013-04-22 21:16:00,72.5,58.3,29.91,NE,45,2.0,2.0,61,0.00,,,0.00,meteohub,2013-04-23 02:16:00,
2013-04-22 21:21:00,72.5,58.3,29.91,NE,45,2.0,2.0,61,0.00,,,0.00,meteohub,2013-04-23 02:21:00,
2013-04-22 21:26:00,72.5,58.8,29.91,NE,45,2.0,3.0,62,0.00,,,0.00,meteohub,2013-04-23 02:26:00,
2013-04-22 21:31:00,72.1,58.5,29.91,NE,45,2.0,3.0,62,0.00,,,0.00,meteohub,2013-04-23 02:31:00,
2013-04-22 21:36:00,71.8,58.1,29.91,NE,45,2.0,2.0,62,0.00,,,0.00,meteohub,2013-04-23 02:36:00,
2013-04-22 21:41:00,71.6,58.3,29.91,NE,45,2.0,3.0,63,0.00,,,0.00,meteohub,2013-04-23 02:41:00,
2013-04-22 21:46:00,71.4,58.6,29.91,NE,45,2.0,3.0,64,0.00,,,0.00,meteohub,2013-04-23 02:46:00,
2013-04-22 21:51:00,71.2,58.5,29.92,East,90,2.0,3.0,64,0.00,,,0.00,meteohub,2013-04-23 02:51:00,
2013-04-22 21:56:00,71.1,58.3,29.92,NE,45,2.0,2.0,64,0.00,,,0.00,meteohub,2013-04-23 02:56:00,
2013-04-22 22:01:00,70.3,58.1,29.92,NE,45,2.0,2.0,65,0.00,,,0.00,meteohub,2013-04-23 03:01:00,
2013-04-22 22:06:00,70.2,57.9,29.92,ENE,68,2.0,2.0,65,0.00,,,0.00,meteohub,2013-04-23 03:06:00,
2013-04-22 22:12:00,70.2,57.9,29.92,NE,45,3.0,3.0,65,0.00,,,0.00,meteohub,2013-04-23 03:12:00,
2013-04-22 22:17:00,70.5,58.1,29.92,NE,45,2.0,3.0,65,0.00,,,0.00,meteohub,2013-04-23 03:17:00,
2013-04-22 22:22:00,70.9,58.1,29.92,NE,45,3.0,3.0,64,0.00,,,0.00,meteohub,2013-04-23 03:22:00,
2013-04-22 22:27:00,71.2,58.5,29.92,East,90,4.0,4.0,64,0.00,,,0.00,meteohub,2013-04-23 03:27:00,
2013-04-22 22:32:00,71.6,57.9,29.92,NE,45,4.0,4.0,62,0.00,,,0.00,meteohub,2013-04-23 03:32:00,
2013-04-22 22:37:00,71.8,58.1,29.92,NE,45,4.0,4.0,62,0.00,,,0.00,meteohub,2013-04-23 03:37:00,
2013-04-22 22:42:00,72.0,58.3,29.92,NE,45,4.0,5.0,62,0.00,,,0.00,meteohub,2013-04-23 03:42:00,
2013-04-22 22:47:00,71.8,58.1,29.92,NE,45,4.0,5.0,62,0.00,,,0.00,meteohub,2013-04-23 03:47:00,
2013-04-22 22:52:00,71.6,57.9,29.92,East,90,4.0,6.0,62,0.00,,,0.00,meteohub,2013-04-23 03:52:00,
2013-04-22 22:57:00,71.4,58.1,29.92,NE,45,4.0,6.0,63,0.00,,,0.00,meteohub,2013-04-23 03:57:00,
2013-04-22 23:01:00,71.2,57.9,29.93,NE,45,4.0,5.0,63,0.00,,,0.00,meteohub,2013-04-23 04:01:00,
2013-04-22 23:02:00,71.2,57.9,29.92,NE,45,4.0,5.0,63,0.00,,,0.00,meteohub,2013-04-23 04:02:00,
2013-04-22 23:07:00,71.2,57.9,29.93,NE,45,4.0,4.0,63,0.00,,,0.00,meteohub,2013-04-23 04:07:00,
2013-04-22 23:12:00,71.1,58.3,29.93,East,90,4.0,4.0,64,0.00,,,0.00,meteohub,2013-04-23 04:12:00,
2013-04-22 23:17:00,71.1,58.3,29.92,NE,45,4.0,7.0,64,0.00,,,0.00,meteohub,2013-04-23 04:17:00,
2013-04-22 23:22:00,71.1,58.3,29.93,East,90,5.0,7.0,64,0.00,,,0.00,meteohub,2013-04-23 04:22:00,
2013-04-22 23:27:00,71.1,58.3,29.93,NE,45,6.0,6.0,64,0.00,,,0.00,meteohub,2013-04-23 04:27:00,
2013-04-22 23:32:00,71.1,58.6,29.92,NE,45,7.0,8.0,65,0.00,,,0.00,meteohub,2013-04-23 04:32:00,
2013-04-22 23:37:00,71.1,58.6,29.92,NE,45,8.0,8.0,65,0.00,,,0.00,meteohub,2013-04-23 04:37:00,
2013-04-22 23:42:00,70.9,59.0,29.92,NE,45,7.0,8.0,66,0.00,,,0.00,meteohub,2013-04-23 04:42:00,
2013-04-22 23:48:00,70.7,59.2,29.92,East,90,7.0,9.0,67,0.00,,,0.00,meteohub,2013-04-23 04:48:00,
2013-04-22 23:53:00,70.7,59.5,29.93,East,90,11.0,13.0,68,0.00,,,0.00,meteohub,2013-04-23 04:53:00,
2013-04-22 23:58:00,70.7,60.1,29.93,East,90,8.0,13.0,69,0.00,,,0.00,meteohub,2013-04-23 04:58:00,